Location: Unspecified
(32.2674°N, 0.0000°E)
Time: 11:02:31
(UTC+00:00)

SR - All Passes

Search period start: 04 April 2026 00:00
Search period end: 14 April 2026 00:00
Orbit: 571 x 850 km, 66.7° (Epoch: 29 March)

Date Brightness Start Highest point End Pass type
(mag) Time Alt. Az. Time Alt. Az. Time Alt. Az.
4 Apr - 02:26:31 10° NNW 02:32:04 65° ENE 02:37:47 10° SE visible
4 Apr - 04:10:19 10° WNW 04:13:15 14° WSW 04:16:13 10° SW night (unlit)
4 Apr - 16:49:11 10° SSW 16:53:29 73° WNW 16:58:07 10° NNE daylight
5 Apr - 01:32:02 10° N 01:36:51 29° ENE 01:41:47 10° ESE visible
5 Apr - 03:13:29 10° NW 03:18:32 35° WSW 03:23:40 10° S night (unlit)
5 Apr - 15:54:36 10° S 15:58:35 38° ESE 16:02:49 10° NE daylight
5 Apr - 17:37:27 10° W 17:40:24 17° NW 17:43:29 10° N daylight
6 Apr - 00:38:35 10° NNE 00:41:22 14° NE 00:44:11 10° E visible
6 Apr - 02:18:00 10° NNW 02:23:37 82° WSW 02:29:22 10° SSE night (unlit)
6 Apr - 15:01:51 10° SE 15:03:56 13° ESE 15:06:04 10° ENE daylight
6 Apr - 16:40:54 10° SW 16:45:02 42° WNW 16:49:28 10° NNE daylight
7 Apr - 01:23:11 10° NNW 01:28:30 44° ENE 01:33:58 10° SE visible
7 Apr - 03:05:38 10° WNW 03:09:55 22° WSW 03:14:15 10° SSW night (unlit)
7 Apr - 15:45:42 10° SSW 15:49:58 67° ESE 15:54:34 10° NNE daylight
7 Apr - 17:30:55 10° WNW 17:32:12 11° NW 17:33:30 10° NNW daylight
8 Apr - 00:29:03 10° N 00:33:09 21° NE 00:37:20 10° ESE visible
8 Apr - 02:09:38 10° NW 02:15:06 53° WSW 02:20:40 10° S night (unlit)
8 Apr - 14:51:46 10° SSE 14:55:11 23° ESE 14:58:47 10° NE daylight
8 Apr - 16:32:56 10° WSW 16:36:39 26° NW 16:40:36 10° N daylight
9 Apr - 01:14:29 10° NNW 01:20:05 68° ENE 01:25:48 10° SE visible
9 Apr - 02:58:25 10° WNW 03:01:14 14° WSW 03:04:04 10° SW night (unlit)
9 Apr - 15:37:06 10° SSW 15:41:25 70° WNW 15:46:06 10° NNE daylight
10 Apr - 00:19:57 10° N 00:24:51 30° ENE 00:29:51 10° ESE visible
10 Apr - 02:01:28 10° NW 02:06:31 34° WSW 02:11:37 10° S night (unlit)
10 Apr - 14:42:27 10° S 14:46:29 39° ESE 14:50:48 10° NE daylight
10 Apr - 16:25:25 10° W 16:28:20 17° NW 16:31:25 10° NNW daylight
10 Apr - 23:26:24 10° NNE 23:29:20 14° NE 23:32:19 10° E visible
11 Apr - 01:05:57 10° NNW 01:11:35 80° WSW 01:17:20 10° SSE visible
11 Apr - 13:49:33 10° SE 13:51:49 14° ESE 13:54:09 10° ENE daylight
11 Apr - 15:28:47 10° SW 15:32:56 41° WNW 15:37:24 10° N daylight
12 Apr - 00:11:05 10° NNW 00:16:28 45° ENE 00:21:57 10° SE visible
12 Apr - 01:53:37 10° WNW 01:57:51 22° WSW 02:02:07 10° SSW night (unlit)
12 Apr - 14:33:31 10° SSW 14:37:50 70° ESE 14:42:30 10° NNE daylight
12 Apr - 16:18:54 10° WNW 16:20:06 11° NW 16:21:20 10° NNW daylight
12 Apr - 23:16:54 10° N 23:21:05 21° NE 23:25:21 10° ESE visible
13 Apr - 00:57:33 10° NW 01:03:02 51° WSW 01:08:35 10° S visible
13 Apr - 13:39:32 10° SSE 13:43:02 24° ESE 13:46:44 10° NE daylight
13 Apr - 15:20:49 10° WSW 15:24:31 26° NW 15:28:29 10° N daylight
